This is the latest recevied weather packets stored in our database for station/object KD2FKI. If no packets are shown the sender has not sent any weather packets the latest 10 day(s).
| Time | Temp. | Humidity | Pressure | Rain* | Wind** | Luminosity | Snow |
|---|---|---|---|---|---|---|---|
| 1777830642 | 15° C | 38% | - | 0 mm | - | - | - |
| 1777830050 | 16.11° C | 38% | - | 0 mm | - | - | - |
| 1777829440 | 16.11° C | 38% | - | 0 mm | - | - | - |
| 1777828846 | 15.56° C | 38% | - | 0 mm | - | - | - |
| 1777828236 | 15° C | 38% | - | 0 mm | - | - | - |
| 1777827684 | 15° C | 38% | - | 0 mm | - | - | - |
| 1777827035 | 14.44° C | 40% | - | 0 mm | - | - | - |
| 1777826458 | 14.44° C | 40% | - | 0 mm | - | - | - |
| 1777825832 | 14.44° C | 38% | - | 0 mm | - | - | - |
| 1777825239 | 14.44° C | 39% | - | 0 mm | - | - | - |
| 1777824648 | 14.44° C | 40% | - | 0 mm | - | - | - |
| 1777824036 | 13.89° C | 39% | - | 0 mm | - | - | - |
| 1777823442 | 13.89° C | 39% | - | 0 mm | - | - | - |
| 1777822834 | 13.89° C | 40% | - | 0 mm | - | - | - |
| 1777822240 | 12.78° C | 40% | - | 0 mm | - | - | - |
| 1777821631 | 13.33° C | 44% | - | 0 mm | - | - | - |
| 1777821037 | 12.22° C | 44% | - | 0 mm | - | - | - |
| 1777820445 | 11.67° C | 45% | - | 0 mm | - | - | - |
| 1777819834 | 11.11° C | 47% | - | 0 mm | - | - | - |
| 1777819242 | 11.11° C | 46% | - | 0 mm | - | - | - |
| 1777818633 | 10.56° C | 48% | - | 0 mm | - | - | - |
| 1777818040 | 10.56° C | 49% | - | 0 mm | - | - | - |
| 1777817465 | 10° C | 50% | - | 0 mm | - | - | - |
| 1777816838 | 10° C | 51% | - | 0 mm | - | - | - |
| 1777816244 | 9.44° C | 52% | - | 0 mm | - | - | - |
* Rain latest hour (hover to see other rain measurements)
** Current wind speed in m/s (hover to see current wind gust speed)